Flag for Germany Weather past 2 weeks in Warburg, North Rhine-Westphalia, Germany

Now
68 °F

Sunny.


Feels Like: 68 °F
Forecast: 56 / 82 °F
Wind: 3 mph from North

Location: Kassel / Calden

Current Time: Jun 30, 2015 at 10:52:24 AM

Latest Report: Jun 30, 2015 at 10:20 AM


Visibility: 10 mi

Pressure: 30.21 "Hg

Humidity: 64%

Dew point: 55 °F

Location of WarburgLocation

Historic Weather in Warburg — Graph

°F

Warburg temperature yesterday

Maximum temperature yesterday: 77 °F (at 2:50 PM)
Minimum temperature yesterday: 57 °F (at 6:20 AM)
Average temperature yesterday: 71 °F

Past Weeks' High & Low Weather Summary

 TemperatureHumidityPressure
High77 °F (Jun 26, 4:20 PM)100% (Jun 18, 6:50 AM)30.30 "Hg (Jun 18, 6:50 AM)
Low41 °F (Jun 17, 6:20 AM)30% (Jun 22, 8:20 AM)29.68 "Hg (Jun 22, 8:20 PM)
Average60 °F68%30.07 "Hg
* Reported Jun 15 9:20 AM — Jun 30 9:20 AM, Warburg, Weather by CustomWeather, © 2015

Note: Actual official high and low records may vary slightly from our data, if they occured in-between our weather recording intervals... More about our weather records

Advertising

Warburg weather history for previous 24 hours

 ConditionsComfort  
Time TempWeatherWind HumidityBarometerVisibility
9:20 AM
Tue, Jun 30
66 °FPassing clouds.3 mph68%30.21 "HgN/A
8:50 AM63 °FPassing clouds.3 mph77%30.21 "HgN/A
8:20 AM63 °FPassing clouds.3 mph77%30.21 "HgN/A
7:50 AM61 °FSunny.2 mph83%30.21 "Hg10 mi
7:20 AM59 °FSunny.2 mph82%30.21 "Hg10 mi
6:50 AM57 °FSunny.2 mph88%30.21 "Hg10 mi
6:20 AM57 °FSunny.1 mph88%30.18 "Hg10 mi
5:50 AM55 °FClear.2 mph88%30.18 "Hg10 mi
9:50 PM
Mon, Jun 29
66 °FSunny.8 mph60%30.18 "Hg10 mi
9:20 PM66 °FSunny.8 mph60%30.18 "Hg10 mi
8:50 PM68 °FSunny.7 mph56%30.18 "Hg10 mi
8:20 PM72 °FSunny.9 mph50%30.15 "Hg10 mi
7:50 PM72 °FSunny.13 mph50%30.15 "Hg10 mi
7:20 PM73 °FSunny.14 mph47%30.15 "Hg10 mi
6:50 PM73 °FSunny.12 mph50%30.15 "Hg10 mi
6:20 PM75 °FSunny.14 mph47%30.15 "Hg10 mi
5:50 PM75 °FSunny.13 mph54%30.12 "Hg10 mi
5:20 PM75 °FSunny.13 mph50%30.15 "Hg10 mi
4:50 PM75 °FPassing clouds.15 mph50%30.12 "HgN/A
4:20 PM77 °FPassing clouds.12 mph51%30.12 "HgN/A
3:50 PM77 °FSunny.14 mph47%30.12 "Hg10 mi
3:20 PM75 °FSunny.12 mph54%30.12 "Hg10 mi
2:50 PM77 °FPassing clouds.12 mph47%30.12 "HgN/A
2:20 PM73 °FPassing clouds.7 mph50%30.12 "HgN/A
1:50 PM75 °FPassing clouds.9 mph47%30.12 "HgN/A
1:20 PM75 °FScattered clouds.8 mph50%30.12 "HgN/A
12:50 PM73 °FPassing clouds.5 mph50%30.15 "HgN/A
12:20 PM75 °FPartly sunny.5 mph47%30.12 "HgN/A
11:50 AM73 °FSunny.2 mph53%30.12 "Hg10 mi
11:20 AM73 °FSunny.3 mph53%30.15 "Hg10 mi
10:50 AM73 °FSunny.3 mph57%30.15 "Hg10 mi
10:20 AM70 °FPassing clouds.3 mph60%30.15 "HgN/A
Weather by CustomWeather, © 2015

See weather overviewHow to use our weather pages